Погода в Крохалеве

Россия / Пермский край     58°56′44″N   55°24′59″E
темп.,
°C
ветер,
м/с
пор.,
м/с
влажн.,
%
обл.,
%
осадки,
мм/ч
давл.,
гПа
погр.,
м
1 марта, пн
пн123:00−19всв239565 0.1 101681
02:00−21всв239464 0.0 101745
05:00−22всв229553 0.0 101820
08:00−22св119875 0.0 101920
11:00−17вюв018946 0.0 1019183
14:00−12юз238382 0.0 1017429
17:00−11юз248788 0.0 1016480
20:00−15ююз389598 0.0 1013184
2 марта, вт
вт223:00−16ююз4119477 0.0 1012305
02:00−15ююз5129291 0.0 1008422
05:00−13ююз5139296 0.1 1005479
08:00−13ююз51394100 0.8 1000556
11:00−13ююз51293100 2.1 999541
14:00−12ю51193100 1.4 996557
17:00−9ю41093100 2.4 995553
20:00−8ю3995100 1.0 994470
3 марта, ср
ср323:00−9ююв2597100 1.7 994179
02:00−10ю1297100 0.1 99440
05:00−11зюз129899 0.3 99421
08:00−11з229894 0.1 99429
11:00−7з259594 0.1 995262
14:00−4з2490100 0.0 995540
17:00−3з2494100 0.3 996433
20:00−6зсз2297100 0.3 99631
4 марта, чт
чт423:00−7сз3896100 0.4 997334
02:00−10зсз2696100 0.3 996165
05:00−14з239786 0.3 99747
08:00−14зюз259788 0.0 997103
11:00−10зюз379389 0.1 997351
14:00−6юз3688100 0.1 997732
17:00−6юз4788100 0.3 996873
20:00−8ю31093100 0.1 994546
5 марта, пт
пт523:00−7ю41195100 0.8 991741
02:00−6ююв41195100 1.5 986767
05:00−2ююз41197100 3.4 983745
08:00−4зюз51192100 1.4 9831048
11:00−6зюз6118683 1.4 986957
14:00−7з61185100 0.2 9911072
17:00−6з61293100 0.6 996882
20:00−8з51093100 0.6 1000739